Temperature
15 16 17 17 17 17 16 15 15 15 15 15 15 15 16 16 16 16 16 16 16 16 16 16 16 15 15 15 15 15 14 14 14 14 14 14 14 13 13 13 13 13 13 13
15 16 16 16 16 16 16 16 15 15 15 15 15 15 15 15 15 15 15 15 15 15 15 15 15 15 15 15 14 14 14 14 14 14 13 13 13 13 13 13 13 12 12 12
13 14 15 15 16 16 15 15 15 14 14 14 14 14 14 15 15 15 14 14 15 15 15 15 15 15 15 15 14 14 14 13 13 13 13 13 13 13 12 12 12 12 12 12
12 14 14 15 15 16 15 14 14 14 14 14 14 14 15 15 14 14 14 14 14 14 14 14 14 14 14 14 14 14 13 13 13 13 13 12 12 12 12 12 12 12 12 11
11 12 13 14 15 15 14 14 14 13 13 14 14 14 13 14 14 14 14 14 14 14 14 14 14 14 14 14 13 13 13 13 13 12 12 12 12 12 12 11 11 11 11 11
11 12 13 14 14 15 14 13 13 13 13 13 13 11 11 13 13 13 13 13 13 13 13 13 13 13 13 13 13 13 13 13 12 12 12 12 12 11 11 11 11 11 11 10
11 12 12 13 14 15 13 12 13 13 13 13 12 12 13 13 13 13 13 13 13 13 13 13 13 12 13 13 12 12 12 12 12 12 12 11 11 11 11 10 10 10 10 10
10 11 12 13 13 12 12 13 13 13 13 13 13 13 12 12 12 12 12 12 12 12 12 12 12 12 12 12 12 12 12 12 11 11 11 11 11 11 10 10 10 10 10 10
10 11 12 13 13 14 14 13 13 13 13 13 12 12 12 11 11 11 12 11 11 11 11 11 11 11 11 11 11 11 11 11 11 11 11 11 10 10 10 10 10 9 9 9
10 11 12 13 13 13 13 13 13 13 12 12 11 11 11 11 11 11 11 11 11 11 11 11 10 10 11 11 11 11 10 10 10 10 10 10 10 10 10 9 9 9 9 9
10 10 11 12 12 12 12 12 12 12 12 12 11 11 11 10 10 10 10 10 10 10 10 10 10 10 10 10 10 10 10 10 10 10 10 10 10 9 9 9 9 9 9 9
9 11 10 11 12 12 12 12 11 11 11 11 11 10 10 10 10 10 10 10 10 9 9 9 9 9 9 9 9 9 9 9 9 9 9 9 9 9 9 9 9 8 8 8
12 12 12 11 11 11 11 11 11 11 11 10 10 10 10 10 10 10 9 9 9 9 9 9 9 9 9 9 9 9 9 9 9 9 8 8 8 8 8 8 8 8 8 7
12 11 11 11 11 11 11 10 10 10 10 10 10 10 9 9 9 9 9 9 9 8 8 8 8 8 8 8 8 8 8 8 8 8 8 8 8 8 8 8 8 8 7 7
11 11 10 10 10 10 10 10 10 9 9 9 9 9 9 9 9 8 8 8 8 8 8 8 8 8 8 8 8 8 8 8 8 7 7 7 7 7 7 7 7 7 7 7
10 10 10 10 10 9 9 9 9 9 9 9 9 9 8 8 8 8 8 8 7 7 7 7 7 7 7 7 7 7 7 7 7 7 7 7 7 7 7 7 7 6 6 6
9 9 9 9 9 9 9 9 8 8 8 8 8 8 8 8 8 7 7 7 7 7 7 7 7 7 7 6 6 6 7 6 6 6 6 6 6 6 6 6 6 6 6 6
9 9 9 9 9 9 9 8 8 8 8 8 8 7 7 7 7 7 6 6 6 6 6 6 6 6 6 6 6 6 6 6 6 6 6 6 6 5 5 5 5 5 5 5
9 9 9 8 8 8 8 8 8 8 7 7 7 7 7 7 6 6 6 6 5 5 5 5 5 5 5 6 6 5 5 5 5 5 5 5 5 5 5 5 5 4 4 4
8 8 8 8 8 8 7 7 7 7 7 7 7 6 6 6 6 6 5 5 5 5 5 5 5 5 5 5 5 5 5 5 5 5 4 4 4 4 4 4 4 4 4 4
8 8 7 7 7 7 7 7 7 7 7 6 6 6 6 5 5 5 5 5 4 4 4 4 4 4 4 4 4 4 4 4 4 4 4 4 4 4 4 4 4 4 3 3
7 7 7 7 7 6 6 6 6 6 6 6 6 5 5 5 5 4 4 4 4 4 4 4 4 4 4 4 4 4 4 4 4 4 3 3 3 3 3 3 3 3 3 3
7 6 6 6 6 6 6 6 6 6 5 5 5 5 4 4 4 4 4 4 3 3 3 3 3 3 3 3 3 3 3 3 3 3 3 3 3 3 3 3 3 3 3 3
6 6 6 6 5 5 5 5 5 5 5 5 4 4 4 3 3 3 3 3 3 3 3 3 2 2 2 2 2 3 2 2 2 2 2 2 2 2 2 2 2 2 2 2
5 5 5 5 5 5 5 4 4 4 4 4 3 3 3 3 3 3 3 2 2 2 2 2 2 2 2 2 2 2 2 2 2 2 2 2 2 2 2 2 2 2 2 2
5 5 5 5 4 4 4 4 4 3 3 3 3 3 2 2 2 2 2 2 2 2 2 2 1 1 1 1 1 1 1 1 1 1 1 1 1 1 1 1 1 1 1 1
4 4 4 4 4 4 4 3 3 3 3 3 2 2 2 2 2 2 2 1 1 1 1 1 1 1 1 1 1 1 1 1 1 1 1 1 1 1 1 1 1 1 1 1
Wind_Speed
6 6 5 5 6 5 5 7 7 7 6 5 4 3 2 1 1 2 2 2 1 2 2 2 2 3 3 3 4 4 3 3 4 4 4 3 3 3 3 4 4 4 4 3
4 4 4 5 6 6 6 5 6 4 5 4 3 1 1 1 1 1 1 1 1 0 0 1 2 3 3 4 4 4 5 4 4 3 3 3 3 3 3 3 3 3 4 4
4 6 4 5 5 4 2 2 3 4 5 2 2 2 1 1 1 1 0 1 1 1 2 3 3 3 4 5 4 5 5 4 3 3 3 3 3 2 3 3 3 3 4 4
1 2 4 6 2 1 2 1 0 2 1 1 1 2 1 1 1 1 2 2 3 3 2 3 3 2 3 3 4 5 5 5 5 4 4 3 3 3 4 3 3 4 4 4
2 2 6 5 3 1 2 2 2 1 0 1 1 3 3 3 2 2 2 2 3 3 3 2 3 3 1 2 3 4 5 5 5 5 4 3 4 4 3 3 4 4 4 4
3 3 5 5 5 3 2 2 3 0 1 1 2 2 4 5 4 3 3 2 2 2 2 2 2 1 1 2 2 5 6 6 5 5 5 5 5 4 3 3 4 4 3 3
4 5 6 5 4 2 1 5 4 1 1 1 2 4 5 4 3 2 3 3 2 2 2 2 2 0 1 1 3 5 4 4 4 5 5 5 4 3 3 3 3 3 3 3
3 4 6 3 1 2 5 2 1 1 1 1 2 2 2 3 3 2 3 3 3 3 3 3 2 0 1 3 4 3 2 3 4 4 4 3 3 3 3 3 3 3 2 2
6 6 4 2 3 3 4 2 1 1 1 0 1 1 2 3 3 3 3 3 3 2 3 4 3 1 2 3 2 1 1 2 3 3 2 3 3 3 2 3 3 3 3 3
2 4 3 2 0 1 1 2 2 2 1 0 1 1 2 2 3 3 3 3 3 3 3 4 4 3 2 2 1 0 1 2 2 1 1 1 2 2 2 3 3 4 3 3
3 4 3 3 1 1 1 0 0 1 1 1 1 1 2 2 3 3 3 3 2 2 2 3 4 3 3 2 1 0 1 2 2 2 2 2 1 2 3 4 4 5 5 4
7 7 5 5 4 2 0 1 1 1 2 1 2 2 2 2 3 3 3 2 2 2 2 3 3 3 3 2 0 0 1 2 2 2 2 2 2 1 2 2 4 5 5 5
5 4 4 4 3 1 1 1 2 1 2 2 2 2 2 2 3 2 3 2 2 3 3 3 3 3 4 3 1 0 1 2 2 2 2 2 2 2 2 2 2 2 3 4
3 2 2 3 3 2 1 1 1 2 1 1 2 2 2 2 2 2 3 3 3 2 2 3 3 4 4 2 1 1 1 2 2 2 2 2 3 3 2 2 1 2 2 2
3 3 4 3 2 1 0 0 1 2 3 3 2 2 2 2 3 3 3 3 2 2 3 3 3 4 3 2 1 2 2 2 2 1 1 2 2 2 2 2 2 1 1 1
2 1 2 1 1 2 1 1 1 3 3 3 3 3 2 2 3 3 3 2 1 2 3 3 3 4 3 2 1 2 2 3 2 1 1 1 1 1 2 2 2 2 2 2
2 3 3 2 3 3 3 3 4 4 3 3 3 3 1 1 2 3 3 3 2 2 3 3 3 3 2 2 2 1 2 2 2 2 1 1 1 1 1 1 2 2 2 2
4 5 5 4 4 4 4 3 3 3 3 3 2 1 1 1 2 3 3 3 2 3 3 3 3 3 2 2 2 1 1 1 1 1 1 1 1 1 1 1 1 1 1 1
1 1 2 2 3 3 3 3 3 3 3 2 2 2 2 3 3 3 2 2 2 3 4 4 3 2 2 3 2 1 1 1 1 2 1 1 1 1 2 2 2 2 1 1
1 1 1 2 2 2 3 3 3 3 3 2 2 2 2 3 2 2 2 2 3 3 4 3 2 2 2 3 2 1 1 1 1 1 1 1 1 2 2 2 3 3 2 2
1 1 2 2 3 3 3 3 2 2 2 2 2 2 2 3 2 2 2 3 4 3 3 3 2 2 2 2 2 1 1 1 1 2 2 2 2 2 2 2 3 3 3 3
2 2 2 2 2 2 3 2 2 1 1 1 1 1 1 2 3 2 2 3 3 4 3 2 2 3 3 3 1 1 1 2 2 2 2 2 2 2 2 2 2 3 3 3
2 2 2 2 3 3 2 1 1 1 1 1 1 1 1 2 2 2 3 3 3 4 3 2 3 4 4 2 1 2 2 2 2 2 2 2 2 2 2 3 3 2 2 2
2 2 2 3 2 2 2 3 2 1 1 1 1 1 1 1 2 2 2 3 4 5 3 3 4 4 4 2 2 2 2 2 2 2 2 2 2 2 2 2 2 2 2 3
2 3 3 2 2 3 3 2 1 1 0 1 1 2 1 1 2 3 2 2 3 4 2 3 4 4 3 2 2 2 2 2 2 2 2 2 2 2 2 2 2 2 2 2
3 3 3 3 3 3 2 2 1 1 1 1 2 2 2 2 2 2 2 2 3 4 3 2 3 3 2 2 2 2 2 3 3 3 2 2 2 2 2 2 2 2 2 2
3 2 2 2 2 2 2 2 2 2 2 2 2 2 2 2 2 2 2 2 2 2 2 3 2 2 2 2 2 2 2 3 3 2 2 2 2 2 2 2 2 2 1 1
Wind_Direction
245 253 241 248 259 247 224 211 211 237 241 265 272 263 263 292 50 66 75 62 109 176 185 195 196 194 191 199 196 186 179 183 203 210 205 200 202 207 209 205 206 202 201 215
292 292 285 278 274 263 250 230 216 225 252 260 263 281 351 17 63 75 54 7 6 42 177 206 216 216 211 210 207 188 192 206 210 199 192 198 204 205 207 216 216 202 200 202
277 298 319 278 262 233 209 255 205 223 239 256 337 356 310 282 112 101 356 317 288 246 237 247 247 231 219 216 204 192 198 207 205 197 197 212 213 205 212 221 220 214 213 204
251 348 248 250 287 160 143 311 189 161 207 212 241 286 259 160 117 347 332 318 301 276 268 269 258 250 241 216 203 199 202 212 212 202 202 205 199 210 217 213 213 218 223 215
163 232 271 291 305 280 198 280 300 165 237 294 322 22 0 355 1 308 295 287 277 264 264 271 268 254 249 235 217 209 212 217 216 207 203 202 207 217 216 210 216 221 222 221
167 204 239 253 286 305 120 266 297 225 207 242 49 7 290 312 327 330 329 323 310 305 326 324 292 246 205 244 224 222 223 221 214 206 204 211 213 214 218 212 216 214 226 228
197 223 256 262 292 38 149 256 291 263 246 225 205 224 255 292 314 325 338 343 3 20 360 319 305 301 227 242 240 241 238 228 221 214 214 213 206 208 213 213 207 206 217 234
182 211 251 276 72 166 220 242 278 314 235 212 238 271 298 316 320 339 359 4 15 12 343 329 333 340 280 263 260 258 239 227 227 226 226 221 201 211 208 198 199 212 226 251
197 220 252 255 206 200 173 168 202 214 264 203 279 314 330 335 338 341 352 351 354 357 344 335 330 307 258 275 284 282 253 246 237 232 236 213 199 209 214 201 204 222 229 244
254 263 280 300 206 200 179 188 213 193 194 143 263 290 320 332 333 331 332 335 340 350 347 332 324 316 282 288 302 325 295 289 256 223 252 234 211 205 208 212 210 216 223 238
257 274 319 317 319 289 306 22 31 322 225 193 189 278 289 307 308 308 308 313 322 323 320 316 323 328 321 317 336 309 288 288 288 250 226 226 231 230 224 227 219 214 219 217
233 232 220 245 253 247 79 310 283 288 305 288 204 230 275 297 296 294 298 307 313 313 313 313 323 329 326 321 303 220 278 291 288 269 244 224 219 271 272 250 255 238 223 210
222 229 213 230 245 237 222 271 289 261 235 268 266 239 255 283 289 288 298 306 296 295 299 306 318 321 321 320 324 271 259 272 286 281 254 238 230 224 264 325 316 258 230 213
210 169 218 249 251 256 245 256 327 344 309 275 262 265 271 285 291 293 293 292 290 297 300 302 315 314 314 316 329 312 291 287 297 280 268 250 242 236 224 221 271 307 294 243
259 202 212 239 262 276 267 106 34 342 326 321 299 277 268 265 269 279 286 296 308 310 302 304 309 308 314 326 333 314 306 299 298 296 292 275 257 247 235 226 226 245 301 310
260 235 187 197 235 257 275 244 244 271 287 298 297 284 269 259 274 290 306 308 282 283 290 295 295 296 304 316 319 316 307 302 312 303 308 313 293 259 238 230 226 214 219 232
204 238 241 248 247 252 253 244 235 241 259 271 271 268 266 313 334 326 318 316 295 290 294 297 294 302 307 302 290 287 302 305 317 313 286 273 286 282 259 238 222 219 225 213
214 223 222 217 218 234 253 257 245 239 244 250 255 251 247 270 279 286 298 316 331 330 319 308 302 311 319 317 304 294 301 297 294 277 274 263 255 249 259 254 228 224 252 238
218 220 231 231 227 226 243 256 256 251 249 241 239 242 251 266 273 278 290 311 308 303 299 298 316 328 317 308 307 287 286 291 299 296 291 291 288 250 236 230 227 226 234 220
316 316 304 292 273 251 251 258 255 259 254 238 242 262 283 286 280 285 293 284 273 271 279 299 313 318 307 304 313 296 280 273 269 273 280 282 276 268 250 229 217 212 218 218
262 287 291 284 284 275 255 249 243 253 262 240 227 241 264 280 280 282 293 301 299 296 297 307 317 305 297 308 327 315 295 281 261 255 263 270 280 281 270 245 230 222 222 223
277 282 285 284 284 288 283 266 240 244 280 276 252 255 290 300 300 303 294 277 283 302 307 300 299 300 307 320 320 302 293 285 273 267 263 261 263 266 267 258 238 234 234 227
269 271 276 272 257 265 280 276 248 226 241 251 238 251 272 287 282 280 299 300 296 309 314 298 299 304 311 330 317 300 294 289 281 271 264 263 263 262 263 267 255 238 228 228
267 273 273 278 284 283 272 269 261 248 232 246 248 244 252 301 309 291 272 304 318 317 317 312 316 322 332 343 326 311 302 293 282 273 267 267 270 275 274 275 272 255 234 226
265 269 271 271 262 255 249 256 262 239 208 288 298 296 285 261 263 279 289 294 313 328 325 323 328 330 335 332 321 312 309 303 293 284 273 270 271 270 270 271 270 261 252 245
267 263 257 241 233 237 231 219 220 222 220 272 303 305 303 306 299 302 305 310 320 333 336 326 325 328 330 327 322 321 323 321 315 304 288 277 273 269 266 265 272 271 261 252
282 281 273 271 264 232 213 205 207 225 226 231 270 286 289 297 305 317 325 329 330 331 331 327 327 331 334 332 326 325 327 321 312 306 299 292 288 277 265 264 266 263 265 256
Height
1516 1513 1512 1511 1510 1509 1512 1515 1521 1517 1513 1509 1506 1504 1502 1501 1500 1499 1499 1499 1499 1499 1499 1499 1500 1500 1500 1500 1501 1502 1502 1502 1503 1503 1504 1504 1505 1505 1505 1505 1505 1505 1505 1505
1516 1511 1510 1510 1508 1507 1506 1507 1509 1509 1510 1505 1503 1502 1500 1499 1499 1498 1497 1497 1497 1497 1497 1497 1497 1497 1497 1497 1498 1498 1499 1499 1499 1500 1500 1500 1501 1501 1501 1501 1501 1501 1501 1501
1524 1515 1512 1515 1507 1504 1505 1504 1505 1509 1507 1503 1501 1500 1499 1498 1497 1496 1496 1495 1495 1495 1494 1494 1494 1493 1494 1494 1494 1495 1495 1495 1496 1496 1496 1496 1497 1497 1497 1497 1497 1497 1497 1497
1525 1521 1524 1512 1501 1500 1502 1503 1502 1502 1502 1501 1500 1499 1498 1497 1497 1495 1494 1493 1492 1492 1491 1491 1491 1491 1490 1490 1491 1491 1491 1492 1492 1492 1492 1492 1492 1493 1493 1493 1493 1492 1493 1493
1526 1525 1518 1508 1502 1501 1503 1504 1502 1501 1500 1500 1498 1497 1497 1497 1496 1494 1493 1491 1490 1489 1488 1488 1487 1487 1487 1486 1486 1486 1487 1487 1487 1488 1488 1488 1488 1488 1488 1488 1488 1488 1488 1488
1524 1524 1522 1510 1500 1498 1501 1506 1501 1499 1499 1498 1497 1501 1498 1495 1494 1492 1491 1489 1488 1486 1485 1485 1484 1484 1483 1482 1482 1482 1482 1483 1483 1483 1484 1484 1484 1484 1484 1484 1484 1484 1484 1484
1521 1521 1513 1504 1499 1498 1509 1507 1500 1498 1498 1497 1497 1497 1496 1493 1491 1490 1488 1486 1485 1484 1483 1482 1481 1480 1479 1478 1478 1478 1479 1479 1479 1479 1479 1479 1479 1480 1480 1480 1480 1480 1480 1480
1519 1520 1515 1500 1499 1502 1503 1499 1498 1497 1496 1496 1495 1493 1492 1491 1489 1487 1486 1484 1483 1482 1480 1479 1478 1477 1476 1475 1475 1475 1475 1475 1475 1475 1475 1475 1475 1475 1476 1476 1475 1476 1476 1476
1510 1509 1501 1497 1497 1497 1497 1497 1497 1496 1495 1494 1493 1491 1490 1488 1487 1485 1484 1483 1481 1480 1478 1477 1476 1475 1474 1473 1472 1472 1472 1471 1471 1471 1471 1471 1471 1471 1471 1471 1471 1471 1472 1471
1505 1501 1498 1497 1496 1496 1496 1495 1495 1494 1494 1493 1491 1490 1488 1487 1485 1483 1482 1481 1480 1478 1476 1475 1474 1473 1472 1471 1470 1469 1468 1468 1468 1467 1467 1467 1467 1468 1467 1467 1467 1467 1467 1467
1503 1500 1498 1496 1496 1495 1494 1494 1493 1492 1491 1490 1489 1488 1486 1484 1483 1481 1480 1479 1478 1476 1475 1473 1472 1470 1469 1468 1467 1466 1465 1465 1464 1464 1463 1463 1463 1464 1463 1463 1463 1463 1463 1463
1499 1496 1496 1495 1494 1494 1492 1491 1490 1489 1488 1487 1486 1485 1484 1482 1481 1479 1478 1476 1475 1474 1473 1471 1470 1468 1467 1466 1465 1464 1463 1462 1461 1461 1460 1460 1459 1459 1459 1460 1459 1459 1459 1459
1492 1492 1492 1492 1492 1491 1490 1489 1488 1487 1485 1484 1483 1483 1481 1480 1478 1477 1476 1474 1473 1472 1470 1469 1467 1466 1465 1463 1462 1461 1460 1459 1458 1458 1457 1456 1456 1455 1454 1455 1455 1455 1455 1455
1489 1489 1489 1489 1489 1488 1488 1486 1485 1484 1483 1482 1481 1479 1478 1477 1476 1475 1473 1472 1471 1469 1468 1467 1465 1464 1462 1461 1460 1458 1458 1457 1456 1455 1454 1453 1452 1452 1451 1450 1450 1449 1450 1451
1486 1486 1486 1486 1486 1485 1485 1484 1482 1481 1480 1479 1478 1477 1476 1474 1473 1472 1471 1470 1468 1467 1465 1464 1462 1461 1460 1458 1457 1456 1455 1453 1452 1451 1451 1450 1449 1449 1448 1447 1447 1446 1446 1446
1484 1484 1484 1483 1483 1482 1482 1481 1480 1479 1478 1477 1475 1474 1473 1472 1470 1469 1467 1466 1465 1464 1462 1461 1459 1458 1457 1455 1454 1453 1452 1451 1450 1448 1448 1447 1446 1446 1445 1444 1443 1443 1443 1443
1481 1481 1481 1480 1480 1479 1479 1478 1478 1477 1475 1474 1473 1471 1470 1469 1467 1465 1464 1463 1462 1460 1459 1457 1456 1454 1453 1452 1451 1450 1448 1447 1446 1446 1445 1444 1444 1443 1442 1441 1440 1440 1440 1440
1478 1478 1478 1477 1477 1476 1476 1475 1474 1473 1472 1471 1470 1469 1467 1466 1464 1462 1461 1459 1458 1456 1455 1454 1452 1451 1450 1449 1448 1447 1445 1444 1443 1442 1442 1441 1440 1440 1440 1439 1438 1437 1437 1438
1475 1475 1475 1474 1474 1473 1472 1472 1471 1470 1469 1468 1467 1465 1464 1463 1461 1459 1458 1456 1454 1452 1451 1450 1449 1448 1446 1446 1445 1443 1442 1441 1440 1439 1438 1438 1437 1437 1436 1436 1436 1435 1435 1435
1473 1473 1472 1471 1471 1470 1469 1468 1468 1466 1465 1464 1463 1462 1461 1460 1458 1456 1454 1453 1451 1450 1448 1447 1445 1444 1443 1442 1441 1440 1439 1438 1437 1436 1435 1434 1434 1433 1433 1432 1432 1432 1432 1432
1471 1470 1469 1468 1467 1467 1466 1465 1464 1463 1462 1461 1460 1459 1458 1456 1455 1453 1451 1449 1448 1447 1446 1444 1443 1441 1440 1439 1438 1437 1436 1435 1434 1433 1432 1431 1430 1429 1429 1429 1429 1428 1428 1428
1468 1467 1466 1465 1464 1463 1463 1462 1461 1460 1459 1458 1457 1456 1454 1453 1451 1450 1448 1447 1445 1444 1442 1441 1440 1438 1437 1436 1435 1433 1432 1431 1430 1429 1428 1428 1427 1426 1425 1425 1425 1425 1425 1425
1466 1465 1464 1463 1462 1461 1460 1459 1458 1457 1456 1455 1453 1452 1451 1449 1448 1446 1444 1443 1442 1440 1439 1438 1436 1435 1433 1432 1431 1430 1429 1428 1427 1426 1425 1424 1424 1423 1422 1422 1421 1422 1421 1421
1463 1462 1461 1460 1459 1458 1456 1456 1455 1454 1453 1452 1451 1449 1448 1446 1445 1444 1442 1440 1439 1437 1436 1434 1433 1431 1430 1428 1427 1426 1425 1424 1423 1423 1422 1421 1420 1420 1419 1418 1418 1418 1418 1418
1460 1458 1457 1456 1455 1454 1454 1453 1452 1451 1450 1449 1448 1447 1445 1444 1442 1440 1439 1437 1436 1434 1432 1431 1429 1428 1426 1425 1424 1422 1422 1421 1420 1420 1419 1418 1417 1416 1416 1415 1414 1414 1414 1414
1456 1455 1454 1453 1452 1451 1450 1449 1448 1448 1447 1446 1444 1443 1442 1441 1439 1438 1436 1435 1433 1431 1429 1428 1426 1424 1423 1422 1421 1420 1419 1418 1417 1416 1415 1414 1414 1413 1412 1411 1411 1411 1411 1411
1453 1451 1450 1449 1448 1448 1447 1446 1445 1444 1443 1442 1441 1440 1439 1438 1436 1435 1433 1432 1430 1428 1427 1425 1424 1422 1421 1419 1418 1417 1416 1415 1414 1413 1412 1411 1410 1410 1409 1408 1408 1408 1408 1408